Notices

What's New in latest Release from April 7th, 2021:

- Updated Glossary, including Speed of Maximum Gust, and Total Hourly Precipitation

- Updated national and regional climate services offices contacts and prices information

- Addition of station inventory lists for 1981-2010, 1971-2000, and 1961-1990 Normals.

If you haven't already, please take our survey and provide feedback about our website: https://eccc.sondage-survey.ca/f/LanguageSelection.aspx?s=442ca660-fcf1-47c0-95a9-59707d6fd709

Hourly Data Report for November 21, 2020

VICTORIA UNIVERSITY CS
BRITISH COLUMBIA
Current Station Operator: ECCC - MSC

48°27'25.200" N
123°18'16.600" W
60.10 m
1018598
71783
WYJ

Download Data

Hourly Data (November 2020)
Hourly Data Report for November 21, 2020
TIME
LST
Temp Definition
°C
Dew Point Definition
°C
Rel Hum Definition
%
Precip. Amount Definition
mm

Wind Dir Definition
10's deg

Wind Spd Definition
km/h
Visibility Definition
km
Stn Press Definition
kPa
Hmdx Definition


Wind Chill Definition


Weather Definition


00:00 5.1 4.6 96 0.0 27 6   102.32     LegendNANA
01:00 3.5 3.5 99 0.0 30 6   102.34     LegendNANA
02:00 4.9 4.7 99 0.0 36 8   102.33     LegendNANA
03:00 4.1 3.5 95 0.0 29 5   102.37     LegendNANA
04:00 2.5 2.4 99 0.0 24 3   102.41     LegendNANA
05:00 2.2 2.1 100 0.2 0 1   102.42     LegendNANA
06:00 3.6 3.5 99 0.0 35 8   102.42     LegendNANA
07:00 2.9 2.9 100 0.0 33 8   102.43     LegendNANA
08:00 4.3 3.7 96 0.0 34 5   102.48     LegendNANA
09:00 5.2 4.8 97 0.0 1 6   102.49     LegendNANA
10:00 6.0 5.4 96 0.0 1 8   102.49     LegendNANA
11:00 7.3 6.2 93 0.0 36 7   102.46     LegendNANA
12:00 7.9 6.1 89 0.0 35 10   102.41     LegendNANA
13:00 8.0 6.5 90 0.0 35 9   102.36     LegendNANA
14:00 7.5 6.4 93 0.0 36 7   102.26     LegendNANA
15:00 7.6 6.2 91 0.0 36 8   102.18     LegendNANA
16:00 7.3 5.9 91 0.0 1 6   102.07     LegendNANA
17:00 6.6 6.1 96 0.0 1 6   101.99     LegendNANA
18:00 6.0 5.5 97 0.0 35 7   101.89     LegendNANA
19:00 5.9 5.5 97 0.0 36 9   101.80     LegendNANA
20:00 5.9 5.5 98 0.0 35 9   101.75     LegendNANA
21:00 5.9 5.5 97 0.0 36 9   101.69     LegendNANA
22:00 5.9 5.4 97 0.0 36 8   101.64     LegendNANA
23:00 5.6 5.1 96 0.0 36 9   101.54     LegendNANA

Notes on Data Quality.

Legend

  • E = Estimated
  • M = Missing
  • NA = Not Available*
  • [empty] = Indicates an unobserved value
Date modified: